Time,TemperatureF,DewpointF,PressureIn,WindDirection,WindDirectionDegrees,WindSpeedMPH,WindSpeedGustMPH,Humidity,HourlyPrecipIn,Conditions,Clouds,dailyrainin,SoftwareType,DateUTC
2013-02-20 00:01:00,33.0,27.0,27.94,NW,318,3.0,5.0,78,0.00,,,0.00,,2013-02-20 08:01:00,
2013-02-20 00:11:00,33.0,27.0,27.94,NW,318,3.0,5.0,78,0.00,,,0.00,,2013-02-20 08:11:00,
2013-02-20 00:21:00,33.0,27.0,27.95,NW,317,5.0,9.0,78,0.00,,,0.00,,2013-02-20 08:21:00,
2013-02-20 00:31:00,33.0,26.0,27.95,NW,325,4.0,8.0,76,0.00,,,0.00,,2013-02-20 08:31:00,
2013-02-20 00:41:00,33.0,26.0,27.95,NW,325,4.0,8.0,76,0.00,,,0.00,,2013-02-20 08:41:00,
2013-02-20 00:52:00,33.0,27.0,27.96,North,349,1.0,6.0,77,0.00,,,0.00,,2013-02-20 08:52:00,
2013-02-20 01:01:00,31.0,26.0,27.96,NNW,347,0.0,1.0,80,0.00,,,0.00,,2013-02-20 09:01:00,
2013-02-20 01:11:00,31.0,26.0,27.96,NNW,347,0.0,1.0,80,0.00,,,0.00,,2013-02-20 09:11:00,
2013-02-20 01:21:00,32.0,26.0,27.96,WNW,283,2.0,6.0,79,0.00,,,0.00,,2013-02-20 09:21:00,
2013-02-20 01:31:00,32.0,26.0,27.97,WNW,283,1.0,7.0,78,0.00,,,0.00,,2013-02-20 09:31:00,
2013-02-20 01:41:00,32.0,26.0,27.97,WNW,283,1.0,7.0,78,0.00,,,0.00,,2013-02-20 09:41:00,
2013-02-20 01:51:00,31.0,26.0,27.97,WSW,253,1.0,3.0,80,0.00,,,0.00,,2013-02-20 09:51:00,
2013-02-20 02:01:00,31.0,26.0,27.97,WNW,297,1.0,3.0,81,0.00,,,0.00,,2013-02-20 10:01:00,
2013-02-20 02:12:00,31.0,26.0,27.97,WNW,297,1.0,3.0,81,0.00,,,0.00,,2013-02-20 10:12:00,
2013-02-20 02:21:00,31.0,26.0,27.97,West,277,2.0,5.0,80,0.00,,,0.00,,2013-02-20 10:21:00,
2013-02-20 02:31:00,32.0,26.0,27.98,WNW,300,3.0,6.0,79,0.00,,,0.00,,2013-02-20 10:31:00,
2013-02-20 02:41:00,32.0,26.0,27.98,WNW,300,3.0,6.0,79,0.00,,,0.00,,2013-02-20 10:41:00,
2013-02-20 02:51:00,31.0,25.0,27.98,SSW,210,0.0,1.0,79,0.00,,,0.00,,2013-02-20 10:51:00,
2013-02-20 03:02:00,29.0,24.0,27.98,SW,216,0.0,1.0,82,0.00,,,0.00,,2013-02-20 11:02:00,
2013-02-20 03:11:00,30.0,25.0,27.98,ENE,73,0.0,2.0,82,0.00,,,0.00,,2013-02-20 11:11:00,
2013-02-20 03:21:00,30.0,25.0,27.98,ENE,73,0.0,2.0,82,0.00,,,0.00,,2013-02-20 11:21:00,
2013-02-20 03:31:00,29.0,25.0,27.98,ENE,73,0.0,1.0,84,0.00,,,0.00,,2013-02-20 11:31:00,
2013-02-20 03:41:00,29.0,25.0,27.98,ENE,73,0.0,1.0,84,0.00,,,0.00,,2013-02-20 11:41:00,
2013-02-20 03:52:00,28.0,24.0,27.98,ENE,71,0.0,0.0,85,0.00,,,0.00,,2013-02-20 11:52:00,
2013-02-20 04:01:00,28.0,24.0,27.98,West,264,0.0,1.0,86,0.00,,,0.00,,2013-02-20 12:01:00,
2013-02-20 04:11:00,28.0,24.0,27.98,West,264,0.0,1.0,86,0.00,,,0.00,,2013-02-20 12:11:00,
2013-02-20 04:21:00,28.0,24.0,27.98,SE,143,0.0,1.0,85,0.00,,,0.00,,2013-02-20 12:21:00,
2013-02-20 04:31:00,29.0,25.0,27.99,SE,129,0.0,1.0,83,0.00,,,0.00,,2013-02-20 12:31:00,
2013-02-20 04:41:00,29.0,25.0,27.99,SE,129,0.0,1.0,83,0.00,,,0.00,,2013-02-20 12:41:00,
2013-02-20 04:52:00,28.0,24.0,27.98,SW,214,0.0,1.0,85,0.00,,,0.00,,2013-02-20 12:52:00,
2013-02-20 05:01:00,27.0,23.0,27.99,SSW,197,0.0,1.0,86,0.00,,,0.00,,2013-02-20 13:01:00,
2013-02-20 05:11:00,27.0,23.0,27.99,SSW,197,0.0,1.0,86,0.00,,,0.00,,2013-02-20 13:11:00,
2013-02-20 05:22:00,27.0,23.0,28.00,SSW,197,0.0,0.0,86,0.00,,,0.00,,2013-02-20 13:22:00,
2013-02-20 05:31:00,26.0,23.0,28.00,SSE,164,0.0,1.0,87,0.00,,,0.00,,2013-02-20 13:31:00,
2013-02-20 05:42:00,26.0,23.0,28.00,SSE,164,0.0,1.0,87,0.00,,,0.00,,2013-02-20 13:42:00,
2013-02-20 05:51:00,27.0,24.0,28.00,SSE,165,0.0,1.0,89,0.00,,,0.00,,2013-02-20 13:51:00,
2013-02-20 06:01:00,27.0,24.0,28.01,SSE,165,0.0,1.0,88,0.00,,,0.00,,2013-02-20 14:01:00,
2013-02-20 06:11:00,27.0,24.0,28.01,SSE,165,0.0,1.0,88,0.00,,,0.00,,2013-02-20 14:11:00,
2013-02-20 06:21:00,26.0,23.0,28.01,SSE,165,0.0,0.0,88,0.00,,,0.00,,2013-02-20 14:21:00,
2013-02-20 06:32:00,26.0,23.0,28.02,SSE,165,0.0,1.0,89,0.00,,,0.00,,2013-02-20 14:32:00,
2013-02-20 06:42:00,26.0,23.0,28.02,SSE,165,0.0,1.0,89,0.00,,,0.00,,2013-02-20 14:42:00,
2013-02-20 06:52:00,26.0,23.0,28.02,SSE,165,0.0,0.0,89,0.00,,,0.00,,2013-02-20 14:52:00,
2013-02-20 07:01:00,26.0,23.0,28.02,SSE,164,0.0,0.0,89,0.00,,,0.00,,2013-02-20 15:01:00,
2013-02-20 07:11:00,26.0,23.0,28.02,SSE,164,0.0,0.0,89,0.00,,,0.00,,2013-02-20 15:11:00,
2013-02-20 07:22:00,25.0,22.0,28.02,SSE,165,0.0,0.0,90,0.00,,,0.00,,2013-02-20 15:22:00,
2013-02-20 07:32:00,26.0,23.0,28.02,SW,226,0.0,1.0,90,0.00,,,0.00,,2013-02-20 15:32:00,
2013-02-20 07:41:00,26.0,23.0,28.02,SW,226,0.0,1.0,90,0.00,,,0.00,,2013-02-20 15:41:00,
2013-02-20 07:51:00,27.0,24.0,28.02,SW,222,0.0,1.0,88,0.00,,,0.00,,2013-02-20 15:51:00,
2013-02-20 08:01:00,27.0,24.0,28.02,SW,222,0.0,0.0,87,0.00,,,0.00,,2013-02-20 16:01:00,
2013-02-20 08:11:00,27.0,24.0,28.02,SW,222,0.0,0.0,87,0.00,,,0.00,,2013-02-20 16:11:00,
2013-02-20 08:21:00,28.0,25.0,28.02,SSE,157,0.0,1.0,88,0.00,,,0.00,,2013-02-20 16:21:00,
2013-02-20 08:32:00,28.0,24.0,28.02,SSE,157,0.0,0.0,86,0.00,,,0.00,,2013-02-20 16:32:00,
2013-02-20 08:41:00,28.0,24.0,28.02,SSE,157,0.0,0.0,86,0.00,,,0.00,,2013-02-20 16:41:00,
2013-02-20 08:51:00,28.0,25.0,28.03,SSE,156,0.0,1.0,88,0.00,,,0.00,,2013-02-20 16:51:00,
2013-02-20 09:01:00,30.0,26.0,28.02,SSE,157,0.0,1.0,86,0.00,,,0.00,,2013-02-20 17:01:00,
2013-02-20 09:11:00,31.0,26.0,28.02,ESE,113,0.0,1.0,83,0.00,,,0.00,,2013-02-20 17:11:00,
2013-02-20 09:21:00,31.0,26.0,28.02,ESE,113,0.0,1.0,83,0.00,,,0.00,,2013-02-20 17:21:00,
2013-02-20 09:32:00,33.0,27.0,28.02,ESE,113,0.0,1.0,79,0.00,,,0.00,,2013-02-20 17:32:00,
2013-02-20 09:41:00,33.0,27.0,28.02,ESE,113,0.0,1.0,79,0.00,,,0.00,,2013-02-20 17:41:00,
2013-02-20 09:52:00,33.0,27.0,28.02,East,101,0.0,1.0,78,0.00,,,0.00,,2013-02-20 17:52:00,
2013-02-20 10:02:00,33.0,27.0,28.02,East,101,0.0,1.0,78,0.00,,,0.00,,2013-02-20 18:02:00,
2013-02-20 10:11:00,33.0,27.0,28.02,East,101,0.0,1.0,78,0.00,,,0.00,,2013-02-20 18:11:00,
2013-02-20 10:21:00,33.0,27.0,28.01,North,7,1.0,2.0,77,0.00,,,0.00,,2013-02-20 18:21:00,
2013-02-20 10:31:00,34.0,27.0,28.01,NE,34,0.0,2.0,76,0.00,,,0.00,,2013-02-20 18:31:00,
2013-02-20 10:41:00,34.0,27.0,28.01,NE,34,0.0,2.0,76,0.00,,,0.00,,2013-02-20 18:41:00,
2013-02-20 10:51:00,36.0,28.0,28.01,NNE,33,0.0,1.0,73,0.00,,,0.00,,2013-02-20 18:51:00,
2013-02-20 11:01:00,37.0,29.0,28.00,East,100,0.0,3.0,72,0.00,,,0.00,,2013-02-20 19:01:00,
2013-02-20 11:11:00,37.0,29.0,28.00,East,100,0.0,3.0,72,0.00,,,0.00,,2013-02-20 19:11:00,
2013-02-20 11:21:00,38.0,28.0,28.00,SE,129,0.0,3.0,68,0.00,,,0.00,,2013-02-20 19:21:00,
2013-02-20 11:31:00,39.0,29.0,28.00,East,86,0.0,2.0,66,0.00,,,0.00,,2013-02-20 19:31:00,
2013-02-20 11:41:00,39.0,29.0,28.00,East,86,0.0,2.0,66,0.00,,,0.00,,2013-02-20 19:41:00,
2013-02-20 11:51:00,40.0,29.0,27.99,ESE,113,0.0,2.0,65,0.00,,,0.00,,2013-02-20 19:51:00,
2013-02-20 12:01:00,41.0,29.0,27.99,NNE,16,0.0,2.0,63,0.00,,,0.00,,2013-02-20 20:01:00,
2013-02-20 12:11:00,42.0,29.0,27.98,East,93,0.0,2.0,60,0.00,,,0.00,,2013-02-20 20:11:00,
2013-02-20 12:21:00,42.0,29.0,27.98,East,93,0.0,2.0,60,0.00,,,0.00,,2013-02-20 20:21:00,
2013-02-20 12:31:00,42.0,29.0,27.97,SE,134,0.0,3.0,59,0.00,,,0.00,,2013-02-20 20:31:00,
2013-02-20 12:41:00,42.0,29.0,27.97,SE,134,0.0,3.0,59,0.00,,,0.00,,2013-02-20 20:41:00,
2013-02-20 12:51:00,43.0,29.0,27.96,WNW,282,0.0,2.0,58,0.00,,,0.00,,2013-02-20 20:51:00,
2013-02-20 13:01:00,44.0,29.0,27.96,ENE,63,1.0,3.0,55,0.00,,,0.00,,2013-02-20 21:01:00,
2013-02-20 13:11:00,44.0,29.0,27.96,ENE,63,1.0,3.0,55,0.00,,,0.00,,2013-02-20 21:11:00,
2013-02-20 13:21:00,45.0,29.0,27.96,East,82,0.0,2.0,54,0.00,,,0.00,,2013-02-20 21:21:00,
2013-02-20 13:31:00,46.0,29.0,27.95,West,267,0.0,1.0,51,0.00,,,0.00,,2013-02-20 21:31:00,
2013-02-20 13:41:00,46.0,29.0,27.95,West,267,0.0,1.0,51,0.00,,,0.00,,2013-02-20 21:41:00,
2013-02-20 13:52:00,46.0,29.0,27.95,NNE,29,0.0,1.0,51,0.00,,,0.00,,2013-02-20 21:52:00,
2013-02-20 14:01:00,46.0,29.0,27.95,NNE,29,0.0,1.0,51,0.00,,,0.00,,2013-02-20 22:01:00,
2013-02-20 14:11:00,46.0,29.0,27.95,NNE,29,0.0,1.0,51,0.00,,,0.00,,2013-02-20 22:11:00,
2013-02-20 14:21:00,47.0,29.0,27.94,SE,126,0.0,2.0,49,0.00,,,0.00,,2013-02-20 22:21:00,
2013-02-20 14:31:00,47.0,29.0,27.94,NW,315,0.0,4.0,50,0.00,,,0.00,,2013-02-20 22:31:00,
2013-02-20 14:43:00,47.0,29.0,27.94,NW,315,0.0,4.0,50,0.00,,,0.00,,2013-02-20 22:43:00,
2013-02-20 14:51:00,47.0,29.0,27.93,ESE,110,0.0,2.0,49,0.00,,,0.00,,2013-02-20 22:51:00,
2013-02-20 15:01:00,48.0,30.0,27.93,South,169,0.0,2.0,49,0.00,,,0.00,,2013-02-20 23:01:00,
2013-02-20 15:12:00,48.0,30.0,27.93,South,169,0.0,2.0,49,0.00,,,0.00,,2013-02-20 23:12:00,
2013-02-20 15:22:00,48.0,29.0,27.93,East,97,0.0,1.0,47,0.00,,,0.00,,2013-02-20 23:22:00,
2013-02-20 15:31:00,48.0,30.0,27.93,South,171,0.0,1.0,49,0.00,,,0.00,,2013-02-20 23:31:00,
2013-02-20 15:42:00,48.0,30.0,27.93,South,171,0.0,1.0,49,0.00,,,0.00,,2013-02-20 23:42:00,
2013-02-20 15:52:00,47.0,29.0,27.94,ESE,111,0.0,1.0,49,0.00,,,0.00,,2013-02-20 23:52:00,
2013-02-20 16:02:00,47.0,29.0,27.94,ESE,111,0.0,1.0,49,0.00,,,0.00,,2013-02-21 00:02:00,
2013-02-20 16:11:00,47.0,29.0,27.94,ESE,111,0.0,1.0,49,0.00,,,0.00,,2013-02-21 00:11:00,
2013-02-20 16:21:00,46.0,29.0,27.94,ESE,111,0.0,0.0,51,0.00,,,0.00,,2013-02-21 00:21:00,
2013-02-20 16:31:00,45.0,28.0,27.94,ENE,68,0.0,0.0,52,0.00,,,0.00,,2013-02-21 00:31:00,
2013-02-20 16:41:00,45.0,28.0,27.94,ENE,68,0.0,0.0,52,0.00,,,0.00,,2013-02-21 00:41:00,
2013-02-20 16:52:00,44.0,28.0,27.94,ENE,68,0.0,0.0,53,0.00,,,0.00,,2013-02-21 00:52:00,
2013-02-20 17:01:00,44.0,29.0,27.94,ENE,68,0.0,0.0,55,0.00,,,0.00,,2013-02-21 01:01:00,
2013-02-20 17:11:00,44.0,29.0,27.94,ENE,68,0.0,0.0,55,0.00,,,0.00,,2013-02-21 01:11:00,
2013-02-20 17:21:00,43.0,30.0,27.94,ENE,70,0.0,0.0,59,0.00,,,0.00,,2013-02-21 01:21:00,
2013-02-20 17:31:00,42.0,29.0,27.94,ENE,70,0.0,1.0,60,0.00,,,0.00,,2013-02-21 01:31:00,
2013-02-20 17:41:00,42.0,29.0,27.94,ENE,70,0.0,1.0,60,0.00,,,0.00,,2013-02-21 01:41:00,
2013-02-20 17:52:00,41.0,29.0,27.95,ENE,70,0.0,1.0,62,0.00,,,0.00,,2013-02-21 01:52:00,
2013-02-20 18:01:00,41.0,29.0,27.95,SSW,195,0.0,1.0,63,0.00,,,0.00,,2013-02-21 02:01:00,
2013-02-20 18:11:00,41.0,29.0,27.95,SSW,195,0.0,1.0,63,0.00,,,0.00,,2013-02-21 02:11:00,
2013-02-20 18:21:00,40.0,28.0,27.95,SW,214,0.0,1.0,63,0.00,,,0.00,,2013-02-21 02:21:00,
2013-02-20 18:32:00,40.0,29.0,27.95,SW,214,0.0,1.0,64,0.00,,,0.00,,2013-02-21 02:32:00,
2013-02-20 18:42:00,40.0,29.0,27.95,SW,214,0.0,1.0,64,0.00,,,0.00,,2013-02-21 02:42:00,
2013-02-20 18:51:00,40.0,29.0,27.95,SW,214,0.0,1.0,64,0.00,,,0.00,,2013-02-21 02:51:00,
2013-02-20 19:01:00,39.0,28.0,27.96,SW,233,0.0,0.0,64,0.00,,,0.00,,2013-02-21 03:01:00,
2013-02-20 19:11:00,39.0,28.0,27.96,SW,233,0.0,0.0,64,0.00,,,0.00,,2013-02-21 03:11:00,
2013-02-20 19:21:00,38.0,27.0,27.96,SW,221,0.0,1.0,65,0.00,,,0.00,,2013-02-21 03:21:00,
2013-02-20 19:31:00,38.0,27.0,27.96,West,281,0.0,1.0,65,0.00,,,0.00,,2013-02-21 03:31:00,
2013-02-20 19:41:00,38.0,27.0,27.96,West,281,0.0,1.0,65,0.00,,,0.00,,2013-02-21 03:41:00,
2013-02-20 19:52:00,39.0,27.0,27.96,NNW,340,0.0,2.0,63,0.00,,,0.00,,2013-02-21 03:52:00,
2013-02-20 20:01:00,39.0,29.0,27.96,NNE,30,2.0,4.0,66,0.00,,,0.00,,2013-02-21 04:01:00,
2013-02-20 20:11:00,39.0,29.0,27.96,NNE,30,2.0,4.0,66,0.00,,,0.00,,2013-02-21 04:11:00,
2013-02-20 20:21:00,37.0,27.0,27.97,NW,308,0.0,1.0,68,0.00,,,0.00,,2013-02-21 04:21:00,
2013-02-20 20:31:00,37.0,27.0,27.97,SW,219,0.0,2.0,68,0.00,,,0.00,,2013-02-21 04:31:00,
2013-02-20 20:41:00,37.0,27.0,27.97,SW,219,0.0,2.0,68,0.00,,,0.00,,2013-02-21 04:41:00,
2013-02-20 20:52:00,38.0,28.0,27.97,WSW,249,1.0,3.0,66,0.00,,,0.00,,2013-02-21 04:52:00,
2013-02-20 21:02:00,39.0,28.0,27.97,West,280,2.0,5.0,64,0.00,,,0.00,,2013-02-21 05:02:00,
2013-02-20 21:12:00,39.0,28.0,27.97,West,280,2.0,5.0,64,0.00,,,0.00,,2013-02-21 05:12:00,
2013-02-20 21:21:00,39.0,28.0,27.98,West,278,1.0,7.0,64,0.00,,,0.00,,2013-02-21 05:21:00,
2013-02-20 21:32:00,39.0,28.0,27.97,WSW,252,3.0,7.0,65,0.00,,,0.00,,2013-02-21 05:32:00,
2013-02-20 21:42:00,39.0,28.0,27.97,WSW,252,3.0,7.0,65,0.00,,,0.00,,2013-02-21 05:42:00,
2013-02-20 21:58:00,39.0,27.0,27.98,West,266,4.0,8.0,63,0.00,,,0.00,,2013-02-21 05:58:00,
2013-02-20 22:11:00,38.0,27.0,27.98,ESE,110,0.0,4.0,65,0.00,,,0.00,,2013-02-21 06:11:00,
2013-02-20 22:21:00,38.0,27.0,27.98,ESE,110,0.0,4.0,65,0.00,,,0.00,,2013-02-21 06:21:00,
2013-02-20 22:31:00,35.0,27.0,27.99,ESE,111,0.0,1.0,72,0.00,,,0.00,,2013-02-21 06:31:00,
2013-02-20 22:41:00,35.0,27.0,27.99,ESE,111,0.0,1.0,72,0.00,,,0.00,,2013-02-21 06:41:00,
2013-02-20 22:51:00,33.0,26.0,27.99,South,173,0.0,1.0,75,0.00,,,0.00,,2013-02-21 06:51:00,
2013-02-20 23:01:00,32.0,26.0,27.99,SSW,204,0.0,0.0,78,0.00,,,0.00,,2013-02-21 07:01:00,
2013-02-20 23:11:00,33.0,27.0,28.00,SW,226,0.0,2.0,77,0.00,,,0.00,,2013-02-21 07:11:00,
2013-02-20 23:21:00,33.0,27.0,28.00,SW,226,0.0,2.0,77,0.00,,,0.00,,2013-02-21 07:21:00,
2013-02-20 23:31:00,32.0,27.0,28.00,SE,146,0.0,1.0,80,0.00,,,0.00,,2013-02-21 07:31:00,
2013-02-20 23:41:00,32.0,26.0,28.00,SW,216,0.0,1.0,79,0.00,,,0.00,,2013-02-21 07:41:00,
2013-02-20 23:52:00,32.0,26.0,28.00,SW,216,0.0,1.0,79,0.00,,,0.00,,2013-02-21 07:52:00,